Tracking 19903 objects as of 16-Oct-2019
HD Live streaming from Space Station
objects crossing your sky now

SL-8 DEB

Track SL-8 DEB now!
10-day predictions


NORAD ID: 29284
Int'l Code: 1981-120N
Perigee: 1,648.0 km
Apogee: 1,706.4 km
Inclination: 83.0 °
Period: 119.8 minutes
Semi major axis: 8048 km
RCS: 0.0077 m2 (small)
Launch date: December 17, 1981
Source: Commonwealth of Independent States (former USSR) (CIS)
Launch site: PLESETSK MISSILE AND SPACE COMPLEX (PKMTR)

Note: This is SATELLITE DEBRIS
aabbcc
Your satellite tracking list
Your tracking list is empty




NASA's NSSDC Master Catalog

Two Line Element Set (TLE):
1 29284U 81120N   19283.73810840  .00000025  00000-0  18968-3 0  9993
2 29284  82.9676  17.2294 0036312 113.6221  42.7570 12.02415941662391
Source of the keplerian elements: AFSPC